Time,TemperatureF,DewpointF,PressureIn,WindDirection,WindDirectionDegrees,WindSpeedMPH,WindSpeedGustMPH,Humidity,HourlyPrecipIn,Conditions,Clouds,dailyrainin,SoftwareType,DateUTC
2013-08-03 00:00:00,66.9,57.0,27.96,NE,45,0.0,0.0,71,-99.99,,,-99.99,WSDL version 420,2013-08-03 04:00:00,
2013-08-03 00:05:00,66.6,56.9,27.96,NE,45,0.0,0.0,71,-99.99,,,-99.99,WSDL version 420,2013-08-03 04:05:00,
2013-08-03 00:10:00,66.5,56.8,27.99,NE,45,0.0,0.0,71,-99.99,,,-99.99,WSDL version 420,2013-08-03 04:10:00,
2013-08-03 00:15:00,66.5,56.8,27.99,NE,45,0.0,0.0,71,-99.99,,,-99.99,WSDL version 420,2013-08-03 04:15:00,
2013-08-03 00:20:00,66.2,56.7,27.99,NE,45,0.0,0.0,72,-99.99,,,-99.99,WSDL version 420,2013-08-03 04:20:00,
2013-08-03 00:25:00,66.0,56.7,27.99,NE,45,0.0,0.0,72,-99.99,,,-99.99,WSDL version 420,2013-08-03 04:25:00,
2013-08-03 00:30:00,66.0,56.7,27.99,NE,45,0.0,0.0,72,-99.99,,,-99.99,WSDL version 420,2013-08-03 04:30:00,
2013-08-03 00:35:00,66.0,56.7,27.99,NE,45,0.0,0.0,72,-99.99,,,-99.99,WSDL version 420,2013-08-03 04:35:00,
2013-08-03 00:40:00,66.0,56.7,27.96,NE,45,0.0,0.0,72,-99.99,,,-99.99,WSDL version 420,2013-08-03 04:40:00,
2013-08-03 00:45:00,65.8,56.6,27.96,NE,45,0.0,0.0,72,-99.99,,,-99.99,WSDL version 420,2013-08-03 04:45:00,
2013-08-03 00:50:00,65.7,56.4,27.96,NE,45,0.0,0.0,72,-99.99,,,-99.99,WSDL version 420,2013-08-03 04:50:00,
2013-08-03 00:55:00,65.8,56.6,27.96,NE,45,0.0,0.0,72,-99.99,,,-99.99,WSDL version 420,2013-08-03 04:55:00,
2013-08-03 01:00:00,65.7,56.5,27.96,NE,45,0.0,0.0,72,-99.99,,,-99.99,WSDL version 420,2013-08-03 05:00:00,
2013-08-03 01:05:00,65.4,56.2,27.96,NE,45,0.0,0.0,72,-99.99,,,-99.99,WSDL version 420,2013-08-03 05:05:00,
2013-08-03 01:10:00,65.4,56.1,27.96,NE,45,0.0,0.0,72,-99.99,,,-99.99,WSDL version 420,2013-08-03 05:10:00,
2013-08-03 01:15:00,65.4,56.2,27.96,NE,45,0.0,0.0,72,-99.99,,,-99.99,WSDL version 420,2013-08-03 05:15:00,
2013-08-03 01:20:00,65.3,56.4,27.96,NE,45,0.0,0.0,73,-99.99,,,-99.99,WSDL version 420,2013-08-03 05:20:00,
2013-08-03 01:25:00,65.2,56.2,27.96,NE,45,0.0,0.0,72,-99.99,,,-99.99,WSDL version 420,2013-08-03 05:25:00,
2013-08-03 01:30:00,65.1,56.0,27.96,NE,45,0.0,0.0,73,-99.99,,,-99.99,WSDL version 420,2013-08-03 05:30:00,
2013-08-03 01:35:00,65.1,56.3,27.96,NE,45,0.0,0.0,73,-99.99,,,-99.99,WSDL version 420,2013-08-03 05:35:00,
2013-08-03 01:40:00,65.1,56.3,27.96,NE,45,0.0,0.0,73,0.00,,,0.00,WSDL version 420,2013-08-03 05:40:00,
2013-08-03 01:45:00,65.1,56.3,27.96,NE,45,0.0,0.0,73,-99.99,,,-99.99,WSDL version 420,2013-08-03 05:45:00,
2013-08-03 01:50:00,65.1,56.5,27.96,NE,45,0.0,0.0,74,-99.99,,,-99.99,WSDL version 420,2013-08-03 05:50:00,
2013-08-03 01:55:00,65.1,56.6,27.96,NE,45,0.0,0.0,74,-99.99,,,-99.99,WSDL version 420,2013-08-03 05:55:00,
2013-08-03 02:00:00,65.1,56.6,27.96,NE,45,0.0,0.0,74,-99.99,,,-99.99,WSDL version 420,2013-08-03 06:00:00,
2013-08-03 02:05:00,65.1,56.6,27.96,NE,45,0.0,0.0,74,-99.99,,,-99.99,WSDL version 420,2013-08-03 06:05:00,
2013-08-03 02:10:00,65.1,56.6,27.96,ENE,63,0.0,0.0,74,-99.99,,,-99.99,WSDL version 420,2013-08-03 06:10:00,
2013-08-03 02:20:00,65.1,56.8,27.96,ESE,105,0.0,0.0,75,-99.99,,,-99.99,WSDL version 420,2013-08-03 06:20:00,
2013-08-03 02:25:00,65.1,57.0,27.96,South,180,0.0,0.0,75,0.00,,,0.00,WSDL version 420,2013-08-03 06:25:00,
2013-08-03 02:30:00,65.0,56.9,27.96,SW,225,0.0,0.0,75,0.00,,,0.00,WSDL version 420,2013-08-03 06:30:00,
2013-08-03 02:35:00,65.0,56.9,27.96,SW,225,0.0,0.0,75,0.00,,,0.00,WSDL version 420,2013-08-03 06:35:00,
2013-08-03 02:40:00,65.1,57.0,27.96,SW,225,0.0,0.0,75,-99.99,,,-99.99,WSDL version 420,2013-08-03 06:40:00,
2013-08-03 02:45:00,65.1,57.0,27.96,SW,225,0.0,0.0,75,0.00,,,0.00,WSDL version 420,2013-08-03 06:45:00,
2013-08-03 02:50:00,65.1,57.4,27.96,SW,225,0.0,0.0,76,0.00,,,0.00,WSDL version 420,2013-08-03 06:50:00,
2013-08-03 02:55:00,65.1,57.4,27.96,SW,225,0.0,0.0,76,0.00,,,0.00,WSDL version 420,2013-08-03 06:55:00,
2013-08-03 03:05:00,65.3,57.5,27.96,SW,225,0.0,0.0,76,0.00,,,0.00,WSDL version 420,2013-08-03 07:05:00,
2013-08-03 03:10:00,65.3,57.5,27.96,SW,225,0.0,0.0,76,-99.99,,,-99.99,WSDL version 420,2013-08-03 07:10:00,
2013-08-03 03:15:00,65.1,57.4,27.96,SW,225,0.0,0.0,76,-99.99,,,-99.99,WSDL version 420,2013-08-03 07:15:00,
2013-08-03 03:20:00,65.2,57.4,27.96,SW,225,0.0,0.0,76,-99.99,,,-99.99,WSDL version 420,2013-08-03 07:20:00,
2013-08-03 03:25:00,65.1,57.4,27.96,SW,225,0.0,0.0,76,0.00,,,0.00,WSDL version 420,2013-08-03 07:25:00,
2013-08-03 03:30:00,65.1,57.7,27.96,SW,225,0.0,0.0,77,0.00,,,0.00,WSDL version 420,2013-08-03 07:30:00,
2013-08-03 03:35:00,65.1,57.7,27.96,SW,225,0.0,0.0,77,-99.99,,,-99.99,WSDL version 420,2013-08-03 07:35:00,
2013-08-03 03:40:00,65.1,57.7,27.96,SW,225,0.0,0.0,77,0.00,,,0.00,WSDL version 420,2013-08-03 07:40:00,
2013-08-03 03:45:00,65.2,57.9,27.96,SW,225,0.0,0.0,77,0.00,,,0.00,WSDL version 420,2013-08-03 07:45:00,
2013-08-03 03:50:00,65.2,57.9,27.96,SW,225,0.0,0.0,77,0.00,,,0.00,WSDL version 420,2013-08-03 07:50:00,
2013-08-03 03:55:00,65.2,57.9,27.96,SW,225,0.0,0.0,77,-99.99,,,-99.99,WSDL version 420,2013-08-03 07:55:00,
2013-08-03 04:00:00,65.1,57.7,27.96,SW,225,0.0,0.0,77,0.00,,,0.00,WSDL version 420,2013-08-03 08:00:00,
2013-08-03 04:05:00,65.1,57.7,27.96,SW,225,0.0,0.0,77,-99.99,,,-99.99,WSDL version 420,2013-08-03 08:05:00,
2013-08-03 04:10:00,65.1,57.7,27.96,SW,225,0.0,0.0,77,-99.99,,,-99.99,WSDL version 420,2013-08-03 08:10:00,
2013-08-03 04:15:00,65.1,57.7,27.96,SW,225,0.0,0.0,77,-99.99,,,-99.99,WSDL version 420,2013-08-03 08:15:00,
2013-08-03 04:20:00,65.1,57.7,27.96,SW,225,0.0,0.0,77,-99.99,,,-99.99,WSDL version 420,2013-08-03 08:20:00,
2013-08-03 04:25:00,65.1,57.7,27.96,SW,225,0.0,0.0,77,0.00,,,0.00,WSDL version 420,2013-08-03 08:25:00,
2013-08-03 04:30:00,65.1,57.9,27.96,SW,225,0.0,0.0,78,0.00,,,0.00,WSDL version 420,2013-08-03 08:30:00,
2013-08-03 04:35:00,65.1,58.1,27.96,SW,225,0.0,0.0,78,0.00,,,0.00,WSDL version 420,2013-08-03 08:35:00,
2013-08-03 04:40:00,65.1,58.1,27.96,SW,225,0.0,0.0,78,0.00,,,0.00,WSDL version 420,2013-08-03 08:40:00,
2013-08-03 04:45:00,65.2,58.2,27.96,SW,225,0.0,0.0,78,-99.99,,,-99.99,WSDL version 420,2013-08-03 08:45:00,
2013-08-03 04:50:00,65.1,58.1,27.96,SW,225,0.0,0.0,78,0.00,,,0.00,WSDL version 420,2013-08-03 08:50:00,
2013-08-03 04:55:00,65.1,58.1,27.96,SW,225,0.0,0.0,78,-99.99,,,-99.99,WSDL version 420,2013-08-03 08:55:00,
2013-08-03 05:00:00,64.9,57.9,27.96,SW,225,0.0,0.0,78,0.00,,,0.00,WSDL version 420,2013-08-03 09:00:00,
2013-08-03 05:05:00,64.9,57.9,27.96,SW,225,0.0,0.0,78,0.00,,,0.00,WSDL version 420,2013-08-03 09:05:00,
2013-08-03 05:10:00,64.9,57.9,27.96,SW,225,0.0,0.0,78,0.00,,,0.00,WSDL version 420,2013-08-03 09:10:00,
2013-08-03 05:15:00,65.1,58.1,27.96,SW,225,0.0,0.0,78,0.00,,,0.00,WSDL version 420,2013-08-03 09:15:00,
2013-08-03 05:20:00,65.1,58.5,27.96,SW,225,0.0,0.0,79,0.00,,,0.00,WSDL version 420,2013-08-03 09:20:00,
2013-08-03 05:25:00,65.0,58.3,27.96,SW,225,0.0,0.0,79,0.00,,,0.00,WSDL version 420,2013-08-03 09:25:00,
2013-08-03 05:30:00,64.9,58.3,27.96,SW,225,0.0,0.0,79,-99.99,,,-99.99,WSDL version 420,2013-08-03 09:30:00,
2013-08-03 05:35:00,64.8,58.2,27.96,SW,225,0.0,0.0,79,0.00,,,0.00,WSDL version 420,2013-08-03 09:35:00,
2013-08-03 05:40:00,64.6,58.0,27.96,SW,225,0.0,0.0,79,0.00,,,0.00,WSDL version 420,2013-08-03 09:40:00,
2013-08-03 05:45:00,64.8,58.1,27.96,SW,225,0.0,0.0,79,0.00,,,0.00,WSDL version 420,2013-08-03 09:45:00,
2013-08-03 05:50:00,64.8,58.1,27.96,SW,225,0.0,0.0,79,-99.99,,,-99.99,WSDL version 420,2013-08-03 09:50:00,
2013-08-03 05:55:00,64.8,58.1,27.96,SSW,203,0.0,0.0,79,-99.99,,,-99.99,WSDL version 420,2013-08-03 09:55:00,
2013-08-03 06:00:00,64.8,58.5,27.96,SSW,203,0.0,0.0,80,-99.99,,,-99.99,WSDL version 420,2013-08-03 10:00:00,
2013-08-03 06:05:00,64.8,58.5,27.96,SSW,203,0.0,0.0,80,-99.99,,,-99.99,WSDL version 420,2013-08-03 10:05:00,
2013-08-03 06:10:00,64.8,58.5,27.96,SSW,203,0.0,0.0,80,0.00,,,0.00,WSDL version 420,2013-08-03 10:10:00,
2013-08-03 06:15:00,64.7,58.4,27.96,SSW,203,0.0,0.0,80,0.00,,,0.00,WSDL version 420,2013-08-03 10:15:00,
2013-08-03 06:20:00,64.6,58.3,27.96,SSW,203,0.0,0.0,80,-99.99,,,-99.99,WSDL version 420,2013-08-03 10:20:00,
2013-08-03 06:25:00,64.6,58.3,27.96,SSW,203,0.0,0.0,80,-99.99,,,-99.99,WSDL version 420,2013-08-03 10:25:00,
2013-08-03 06:30:00,64.6,58.3,27.96,SSW,203,0.0,0.0,80,0.00,,,0.00,WSDL version 420,2013-08-03 10:30:00,
2013-08-03 06:35:00,64.6,58.3,27.96,SSW,203,0.0,0.0,80,-99.99,,,-99.99,WSDL version 420,2013-08-03 10:35:00,
2013-08-03 06:40:00,64.5,58.2,27.96,SSW,203,0.0,0.0,80,0.00,,,0.00,WSDL version 420,2013-08-03 10:40:00,
2013-08-03 06:45:00,64.6,58.3,27.96,SSW,203,0.0,0.0,80,0.00,,,0.00,WSDL version 420,2013-08-03 10:45:00,
2013-08-03 06:50:00,64.6,58.3,27.96,SSW,203,0.0,0.0,80,0.00,,,0.00,WSDL version 420,2013-08-03 10:50:00,
2013-08-03 06:55:00,64.5,58.3,27.96,SSW,203,0.0,0.0,80,0.00,,,0.00,WSDL version 420,2013-08-03 10:55:00,
2013-08-03 07:00:00,64.5,58.6,27.96,SSW,203,0.0,0.0,81,-99.99,,,-99.99,WSDL version 420,2013-08-03 11:00:00,
2013-08-03 07:05:00,64.6,58.7,27.96,SSW,203,0.0,0.0,81,-99.99,,,-99.99,WSDL version 420,2013-08-03 11:05:00,
2013-08-03 07:10:00,64.6,58.7,27.96,SSW,203,0.0,0.0,81,-99.99,,,-99.99,WSDL version 420,2013-08-03 11:10:00,
2013-08-03 07:15:00,64.6,58.7,27.96,SSW,203,0.0,0.0,81,0.00,,,0.00,WSDL version 420,2013-08-03 11:15:00,
2013-08-03 07:20:00,64.8,58.8,27.96,SSW,203,0.0,0.0,81,0.00,,,0.00,WSDL version 420,2013-08-03 11:20:00,
2013-08-03 07:25:00,64.8,58.8,27.96,SSW,203,0.0,0.0,81,-99.99,,,-99.99,WSDL version 420,2013-08-03 11:25:00,
2013-08-03 07:30:00,64.8,58.8,27.96,WSW,248,0.0,0.0,81,0.00,,,0.00,WSDL version 420,2013-08-03 11:30:00,
2013-08-03 07:35:00,64.8,58.8,27.96,WSW,248,0.0,0.0,81,-99.99,,,-99.99,WSDL version 420,2013-08-03 11:35:00,
2013-08-03 07:40:00,64.6,58.7,27.96,WSW,248,0.0,0.0,81,0.00,,,0.00,WSDL version 420,2013-08-03 11:40:00,
2013-08-03 07:50:00,64.8,59.1,27.96,WSW,248,0.0,0.0,81,-99.99,,,-99.99,WSDL version 420,2013-08-03 11:50:00,
2013-08-03 07:55:00,64.7,58.8,27.96,WSW,248,0.0,0.0,81,0.00,,,0.00,WSDL version 420,2013-08-03 11:55:00,
2013-08-03 08:00:00,64.8,59.1,27.96,WSW,248,0.0,0.0,82,0.00,,,0.00,WSDL version 420,2013-08-03 12:00:00,
2013-08-03 08:05:00,64.8,59.2,27.96,WSW,248,0.0,0.0,82,0.00,,,0.00,WSDL version 420,2013-08-03 12:05:00,
2013-08-03 08:10:00,64.9,59.4,27.96,WSW,248,0.0,0.0,82,0.00,,,0.00,WSDL version 420,2013-08-03 12:10:00,
2013-08-03 08:15:00,65.1,59.6,27.96,WSW,248,0.0,0.0,82,0.00,,,0.00,WSDL version 420,2013-08-03 12:15:00,
2013-08-03 08:20:00,65.4,59.8,27.96,South,174,0.0,0.0,82,0.00,,,0.00,WSDL version 420,2013-08-03 12:20:00,
2013-08-03 08:25:00,65.6,60.0,27.96,SSE,165,0.0,0.0,82,-99.99,,,-99.99,WSDL version 420,2013-08-03 12:25:00,
2013-08-03 08:30:00,65.8,60.2,27.96,South,180,0.0,0.0,82,-99.99,,,-99.99,WSDL version 420,2013-08-03 12:30:00,
2013-08-03 08:35:00,65.8,60.3,27.96,South,188,0.0,1.1,82,0.00,,,0.00,WSDL version 420,2013-08-03 12:35:00,
2013-08-03 08:40:00,66.0,60.4,27.96,WSW,248,0.0,1.1,82,0.00,,,0.00,WSDL version 420,2013-08-03 12:40:00,
2013-08-03 08:45:00,66.2,60.2,27.96,WSW,248,0.0,0.0,81,0.00,,,0.00,WSDL version 420,2013-08-03 12:45:00,
2013-08-03 08:50:00,66.3,60.4,27.96,WSW,248,0.0,0.0,81,0.00,,,0.00,WSDL version 420,2013-08-03 12:50:00,
2013-08-03 08:55:00,66.6,60.6,27.96,WSW,248,0.0,0.0,81,0.00,,,0.00,WSDL version 420,2013-08-03 12:55:00,
2013-08-03 09:00:00,66.6,60.2,27.96,WSW,248,0.0,0.0,80,0.00,,,0.00,WSDL version 420,2013-08-03 13:00:00,
2013-08-03 09:05:00,66.7,60.4,27.96,WSW,248,0.0,0.0,80,0.00,,,0.00,WSDL version 420,2013-08-03 13:05:00,
2013-08-03 09:10:00,66.8,60.4,27.96,WSW,248,0.0,0.0,80,-99.99,,,-99.99,WSDL version 420,2013-08-03 13:10:00,
2013-08-03 09:15:00,67.0,60.3,27.96,WSW,248,0.0,0.0,79,0.00,,,0.00,WSDL version 420,2013-08-03 13:15:00,
2013-08-03 09:20:00,67.3,60.6,27.96,WSW,248,0.0,0.0,79,0.00,,,0.00,WSDL version 420,2013-08-03 13:20:00,
2013-08-03 09:25:00,67.6,60.9,27.96,WSW,248,0.0,0.0,79,0.00,,,0.00,WSDL version 420,2013-08-03 13:25:00,
2013-08-03 09:30:00,67.7,60.8,27.96,WSW,248,0.7,1.3,78,0.00,,,0.00,WSDL version 420,2013-08-03 13:30:00,
2013-08-03 09:35:00,67.9,60.8,27.96,WSW,248,0.0,1.3,78,-99.99,,,-99.99,WSDL version 420,2013-08-03 13:35:00,
2013-08-03 09:40:00,68.2,61.1,27.96,WSW,248,0.0,0.9,78,0.00,,,0.00,WSDL version 420,2013-08-03 13:40:00,
2013-08-03 09:45:00,68.4,60.9,27.96,WSW,248,0.0,0.9,77,0.00,,,0.00,WSDL version 420,2013-08-03 13:45:00,
2013-08-03 09:50:00,68.4,60.9,27.96,WSW,248,0.0,0.0,77,-99.99,,,-99.99,WSDL version 420,2013-08-03 13:50:00,
2013-08-03 09:55:00,68.4,60.9,27.96,WSW,248,0.0,0.0,77,-99.99,,,-99.99,WSDL version 420,2013-08-03 13:55:00,
2013-08-03 10:00:00,68.6,61.0,27.96,SW,225,2.2,2.7,77,-99.99,,,-99.99,WSDL version 420,2013-08-03 14:00:00,
2013-08-03 10:05:00,69.1,61.3,27.96,South,188,0.0,2.7,76,-99.99,,,-99.99,WSDL version 420,2013-08-03 14:05:00,
2013-08-03 10:10:00,69.4,61.3,27.96,SSW,210,0.0,2.2,75,-99.99,,,-99.99,WSDL version 420,2013-08-03 14:10:00,
2013-08-03 10:15:00,69.9,61.2,27.96,West,259,1.7,3.4,74,0.00,,,0.00,WSDL version 420,2013-08-03 14:15:00,
2013-08-03 10:20:00,70.2,61.1,27.96,North,353,0.3,3.4,72,0.00,,,0.00,WSDL version 420,2013-08-03 14:20:00,
2013-08-03 10:25:00,70.6,61.1,27.96,NNE,23,2.6,2.7,72,0.00,,,0.00,WSDL version 420,2013-08-03 14:25:00,
2013-08-03 10:30:00,71.1,61.6,27.96,SSE,167,0.9,2.7,72,0.00,,,0.00,WSDL version 420,2013-08-03 14:30:00,
2013-08-03 10:35:00,71.2,61.7,27.96,SW,218,0.7,2.5,72,0.00,,,0.00,WSDL version 420,2013-08-03 14:35:00,
2013-08-03 10:40:00,71.3,61.6,27.96,NW,323,0.0,2.5,71,0.00,,,0.00,WSDL version 420,2013-08-03 14:40:00,
2013-08-03 10:45:00,71.7,61.6,27.96,WNW,300,2.3,2.7,70,0.00,,,0.00,WSDL version 420,2013-08-03 14:45:00,
2013-08-03 10:50:00,72.1,61.8,27.96,SE,143,0.7,2.7,70,-99.99,,,-99.99,WSDL version 420,2013-08-03 14:50:00,
2013-08-03 10:55:00,72.4,62.0,27.96,ENE,68,3.0,3.6,69,-99.99,,,-99.99,WSDL version 420,2013-08-03 14:55:00,
2013-08-03 11:00:00,72.4,61.6,27.96,NE,45,1.9,3.6,69,-99.99,,,-99.99,WSDL version 420,2013-08-03 15:00:00,
2013-08-03 11:05:00,72.8,62.0,27.96,SSE,163,0.4,2.2,69,-99.99,,,-99.99,WSDL version 420,2013-08-03 15:05:00,
2013-08-03 11:10:00,73.0,62.3,27.96,SE,135,1.3,2.9,69,-99.99,,,-99.99,WSDL version 420,2013-08-03 15:10:00,
2013-08-03 11:15:00,73.3,62.3,27.96,WNW,293,1.0,2.9,68,-99.99,,,-99.99,WSDL version 420,2013-08-03 15:15:00,
2013-08-03 11:20:00,73.4,61.8,27.96,WNW,300,0.0,2.5,67,-99.99,,,-99.99,WSDL version 420,2013-08-03 15:20:00,
2013-08-03 11:25:00,73.8,62.2,27.96,East,83,0.0,2.7,67,-99.99,,,-99.99,WSDL version 420,2013-08-03 15:25:00,
2013-08-03 11:30:00,74.0,62.1,27.96,NW,323,0.9,4.0,66,-99.99,,,-99.99,WSDL version 420,2013-08-03 15:30:00,
2013-08-03 11:40:00,74.8,62.6,27.96,South,188,1.7,2.9,66,-99.99,,,-99.99,WSDL version 420,2013-08-03 15:40:00,
2013-08-03 11:45:00,75.2,62.7,27.96,SW,225,0.0,2.0,65,-99.99,,,-99.99,WSDL version 420,2013-08-03 15:45:00,
2013-08-03 11:50:00,75.6,62.7,27.96,East,96,1.0,3.1,64,-99.99,,,-99.99,WSDL version 420,2013-08-03 15:50:00,
2013-08-03 11:55:00,75.4,62.2,27.96,ENE,68,2.0,3.1,64,-99.99,,,-99.99,WSDL version 420,2013-08-03 15:55:00,
2013-08-03 12:00:00,75.4,62.0,27.96,NNW,332,2.3,3.4,63,-99.99,,,-99.99,WSDL version 420,2013-08-03 16:00:00,
2013-08-03 12:05:00,75.3,61.9,27.96,NNE,30,0.0,3.4,63,-99.99,,,-99.99,WSDL version 420,2013-08-03 16:05:00,
2013-08-03 12:10:00,75.5,62.0,27.96,West,278,1.7,2.9,63,-99.99,,,-99.99,WSDL version 420,2013-08-03 16:10:00,
2013-08-03 12:15:00,75.6,62.0,27.96,SW,218,1.4,2.9,63,-99.99,,,-99.99,WSDL version 420,2013-08-03 16:15:00,
2013-08-03 12:20:00,75.9,62.4,27.96,SE,143,2.3,2.5,63,-99.99,,,-99.99,WSDL version 420,2013-08-03 16:20:00,
2013-08-03 12:25:00,76.1,62.6,27.96,East,83,1.1,2.7,63,-99.99,,,-99.99,WSDL version 420,2013-08-03 16:25:00,
2013-08-03 12:30:00,76.3,62.8,27.96,SE,143,1.1,2.7,63,-99.99,,,-99.99,WSDL version 420,2013-08-03 16:30:00,
2013-08-03 12:40:00,76.3,62.3,27.96,ENE,73,0.5,2.7,62,-99.99,,,-99.99,WSDL version 420,2013-08-03 16:40:00,
2013-08-03 12:45:00,76.2,62.3,27.96,West,278,1.7,2.7,62,-99.99,,,-99.99,WSDL version 420,2013-08-03 16:45:00,
2013-08-03 12:50:00,76.5,62.1,27.96,WSW,248,1.4,2.5,61,-99.99,,,-99.99,WSDL version 420,2013-08-03 16:50:00,
2013-08-03 12:55:00,76.8,62.2,27.96,NNE,30,2.1,3.4,60,-99.99,,,-99.99,WSDL version 420,2013-08-03 16:55:00,
2013-08-03 13:00:00,76.8,62.2,27.96,West,263,2.1,3.6,60,-99.99,,,-99.99,WSDL version 420,2013-08-03 17:00:00,
2013-08-03 13:05:00,77.1,62.1,27.96,NNW,330,2.6,3.6,60,-99.99,,,-99.99,WSDL version 420,2013-08-03 17:05:00,
2013-08-03 13:10:00,76.9,62.0,27.94,South,191,1.3,3.4,60,-99.99,,,-99.99,WSDL version 420,2013-08-03 17:10:00,
2013-08-03 13:15:00,77.0,62.1,27.94,WNW,293,1.7,3.4,60,-99.99,,,-99.99,WSDL version 420,2013-08-03 17:15:00,
2013-08-03 13:20:00,77.1,62.0,27.94,SSW,203,0.0,3.4,60,-99.99,,,-99.99,WSDL version 420,2013-08-03 17:20:00,
2013-08-03 13:25:00,77.7,62.5,27.96,NW,309,2.6,3.1,60,-99.99,,,-99.99,WSDL version 420,2013-08-03 17:25:00,
2013-08-03 13:30:00,77.3,61.9,27.96,SE,135,1.6,3.1,59,-99.99,,,-99.99,WSDL version 420,2013-08-03 17:30:00,
2013-08-03 13:35:00,77.1,61.7,27.96,WNW,293,0.4,2.5,59,-99.99,,,-99.99,WSDL version 420,2013-08-03 17:35:00,
2013-08-03 13:40:00,77.8,62.0,27.96,East,79,0.6,2.2,58,-99.99,,,-99.99,WSDL version 420,2013-08-03 17:40:00,
2013-08-03 13:45:00,78.2,61.7,27.96,NE,53,1.8,2.7,57,-99.99,,,-99.99,WSDL version 420,2013-08-03 17:45:00,
2013-08-03 13:50:00,78.4,61.6,27.96,West,278,1.3,2.7,56,-99.99,,,-99.99,WSDL version 420,2013-08-03 17:50:00,
2013-08-03 13:55:00,78.1,61.0,27.96,NNE,30,2.3,2.9,56,-99.99,,,-99.99,WSDL version 420,2013-08-03 17:55:00,
2013-08-03 14:00:00,78.4,60.7,27.96,NNW,345,2.5,3.1,54,-99.99,,,-99.99,WSDL version 420,2013-08-03 18:00:00,
2013-08-03 14:05:00,78.7,60.5,27.96,SSE,158,3.4,3.4,54,-99.99,,,-99.99,WSDL version 420,2013-08-03 18:05:00,
2013-08-03 14:10:00,78.9,60.6,27.96,NNW,338,2.0,3.8,54,-99.99,,,-99.99,WSDL version 420,2013-08-03 18:10:00,
2013-08-03 14:15:00,78.7,59.4,27.96,NW,308,2.5,3.8,52,-99.99,,,-99.99,WSDL version 420,2013-08-03 18:15:00,
2013-08-03 14:20:00,78.4,59.5,27.96,ESE,120,0.9,3.6,53,-99.99,,,-99.99,WSDL version 420,2013-08-03 18:20:00,
2013-08-03 14:25:00,78.3,59.8,27.96,East,90,2.1,2.7,53,-99.99,,,-99.99,WSDL version 420,2013-08-03 18:25:00,
2013-08-03 14:35:00,79.1,60.0,27.96,West,278,2.5,2.9,51,-99.99,,,-99.99,WSDL version 420,2013-08-03 18:35:00,
2013-08-03 14:45:00,79.5,58.8,27.96,NNE,15,1.6,4.3,49,-99.99,,,-99.99,WSDL version 420,2013-08-03 18:45:00,
2013-08-03 14:50:00,79.6,58.8,27.96,South,186,1.6,3.4,49,-99.99,,,-99.99,WSDL version 420,2013-08-03 18:50:00,
2013-08-03 14:55:00,79.6,58.6,27.94,SW,233,2.6,3.4,49,-99.99,,,-99.99,WSDL version 420,2013-08-03 18:55:00,
2013-08-03 15:00:00,79.8,58.8,27.94,SW,219,2.9,3.1,48,-99.99,,,-99.99,WSDL version 420,2013-08-03 19:00:00,
2013-08-03 15:05:00,80.0,58.5,27.94,WNW,293,1.8,3.1,48,-99.99,,,-99.99,WSDL version 420,2013-08-03 19:05:00,
2013-08-03 15:10:00,80.2,58.5,27.94,North,5,3.0,3.4,47,-99.99,,,-99.99,WSDL version 420,2013-08-03 19:10:00,
2013-08-03 15:15:00,80.1,57.6,27.94,NE,38,1.0,3.4,46,-99.99,,,-99.99,WSDL version 420,2013-08-03 19:15:00,
2013-08-03 15:20:00,80.1,58.0,27.94,NNE,17,1.1,3.1,47,-99.99,,,-99.99,WSDL version 420,2013-08-03 19:20:00,
2013-08-03 15:25:00,80.4,58.1,27.94,SW,233,1.2,4.9,46,-99.99,,,-99.99,WSDL version 420,2013-08-03 19:25:00,
2013-08-03 15:30:00,79.8,57.8,27.94,WNW,293,1.9,4.9,47,-99.99,,,-99.99,WSDL version 420,2013-08-03 19:30:00,
2013-08-03 15:35:00,79.9,57.9,27.94,WNW,300,1.2,4.0,47,-99.99,,,-99.99,WSDL version 420,2013-08-03 19:35:00,
2013-08-03 15:40:00,79.7,57.9,27.94,South,180,2.1,3.1,48,-99.99,,,-99.99,WSDL version 420,2013-08-03 19:40:00,
2013-08-03 15:45:00,79.0,57.1,27.94,SE,135,1.7,2.7,47,-99.99,,,-99.99,WSDL version 420,2013-08-03 19:45:00,
2013-08-03 15:50:00,79.1,57.6,27.94,SE,128,1.3,3.1,48,-99.99,,,-99.99,WSDL version 420,2013-08-03 19:50:00,
2013-08-03 15:55:00,79.3,57.7,27.94,North,8,0.6,3.6,47,-99.99,,,-99.99,WSDL version 420,2013-08-03 19:55:00,
2013-08-03 16:00:00,79.9,58.5,27.94,ESE,105,0.6,3.6,48,-99.99,,,-99.99,WSDL version 420,2013-08-03 20:00:00,
2013-08-03 16:05:00,79.5,57.8,27.94,East,83,1.0,1.3,47,-99.99,,,-99.99,WSDL version 420,2013-08-03 20:05:00,
2013-08-03 16:10:00,79.1,58.1,27.94,North,11,1.7,2.2,49,-99.99,,,-99.99,WSDL version 420,2013-08-03 20:10:00,
2013-08-03 16:15:00,78.4,57.7,27.94,NE,45,1.7,2.2,49,-99.99,,,-99.99,WSDL version 420,2013-08-03 20:15:00,
2013-08-03 16:20:00,78.5,58.0,27.94,ENE,75,0.0,2.2,49,-99.99,,,-99.99,WSDL version 420,2013-08-03 20:20:00,
2013-08-03 16:25:00,79.5,59.4,27.94,South,173,1.2,2.2,51,-99.99,,,-99.99,WSDL version 420,2013-08-03 20:25:00,
2013-08-03 16:30:00,80.1,60.0,27.94,NNE,23,1.0,1.6,50,-99.99,,,-99.99,WSDL version 420,2013-08-03 20:30:00,
2013-08-03 16:40:00,79.4,58.4,27.94,ESE,113,2.1,3.1,49,-99.99,,,-99.99,WSDL version 420,2013-08-03 20:40:00,
2013-08-03 16:50:00,79.0,58.3,27.94,NNW,338,0.7,2.9,49,-99.99,,,-99.99,WSDL version 420,2013-08-03 20:50:00,
2013-08-03 16:55:00,78.6,58.0,27.94,SW,233,1.6,2.5,49,-99.99,,,-99.99,WSDL version 420,2013-08-03 20:55:00,
2013-08-03 17:00:00,78.3,57.6,27.94,NE,53,1.0,3.1,49,-99.99,,,-99.99,WSDL version 420,2013-08-03 21:00:00,
2013-08-03 17:05:00,78.1,57.6,27.94,NNE,30,1.2,3.1,49,-99.99,,,-99.99,WSDL version 420,2013-08-03 21:05:00,
2013-08-03 17:10:00,78.4,57.6,27.94,East,98,2.5,3.4,49,-99.99,,,-99.99,WSDL version 420,2013-08-03 21:10:00,
2013-08-03 17:15:00,78.6,58.0,27.94,North,353,3.1,3.4,50,-99.99,,,-99.99,WSDL version 420,2013-08-03 21:15:00,
2013-08-03 17:20:00,78.6,57.9,27.94,ESE,113,0.6,3.1,49,-99.99,,,-99.99,WSDL version 420,2013-08-03 21:20:00,
2013-08-03 17:25:00,78.7,58.1,27.94,South,173,2.2,2.7,49,-99.99,,,-99.99,WSDL version 420,2013-08-03 21:25:00,
2013-08-03 17:30:00,79.5,58.7,27.94,ENE,68,0.0,2.9,49,-99.99,,,-99.99,WSDL version 420,2013-08-03 21:30:00,
2013-08-03 17:35:00,79.3,58.7,27.94,WNW,287,3.0,3.1,50,-99.99,,,-99.99,WSDL version 420,2013-08-03 21:35:00,
2013-08-03 17:40:00,78.7,58.2,27.94,NW,326,2.0,3.1,50,-99.99,,,-99.99,WSDL version 420,2013-08-03 21:40:00,
2013-08-03 17:45:00,78.1,58.0,27.94,SE,128,1.3,2.9,50,-99.99,,,-99.99,WSDL version 420,2013-08-03 21:45:00,
2013-08-03 17:50:00,77.8,57.7,27.94,North,360,1.1,3.8,50,-99.99,,,-99.99,WSDL version 420,2013-08-03 21:50:00,
2013-08-03 17:55:00,77.6,57.5,27.94,ENE,75,1.4,3.8,50,-99.99,,,-99.99,WSDL version 420,2013-08-03 21:55:00,
2013-08-03 18:00:00,77.7,57.6,27.94,NE,45,2.5,2.9,50,-99.99,,,-99.99,WSDL version 420,2013-08-03 22:00:00,
2013-08-03 18:05:00,77.6,57.5,27.94,NW,326,0.9,2.7,50,-99.99,,,-99.99,WSDL version 420,2013-08-03 22:05:00,
2013-08-03 18:10:00,77.4,57.7,27.94,NE,53,1.2,2.5,50,-99.99,,,-99.99,WSDL version 420,2013-08-03 22:10:00,
2013-08-03 18:15:00,77.1,57.6,27.94,NE,45,0.3,2.5,51,-99.99,,,-99.99,WSDL version 420,2013-08-03 22:15:00,
2013-08-03 18:20:00,76.9,58.1,27.94,SW,233,2.2,2.7,53,-99.99,,,-99.99,WSDL version 420,2013-08-03 22:20:00,
2013-08-03 18:25:00,76.6,58.2,27.94,ENE,75,1.2,2.7,53,-99.99,,,-99.99,WSDL version 420,2013-08-03 22:25:00,
2013-08-03 18:30:00,76.6,58.2,27.94,NNW,338,1.8,2.7,53,-99.99,,,-99.99,WSDL version 420,2013-08-03 22:30:00,
2013-08-03 18:35:00,76.6,58.5,27.94,West,270,1.6,2.7,54,-99.99,,,-99.99,WSDL version 420,2013-08-03 22:35:00,
2013-08-03 18:40:00,77.2,59.0,27.91,ESE,113,0.3,2.9,53,-99.99,,,-99.99,WSDL version 420,2013-08-03 22:40:00,
2013-08-03 18:45:00,78.1,59.5,27.91,ENE,68,1.3,3.1,53,-99.99,,,-99.99,WSDL version 420,2013-08-03 22:45:00,
2013-08-03 18:50:00,77.7,59.2,27.91,ENE,75,3.5,4.0,53,-99.99,,,-99.99,WSDL version 420,2013-08-03 22:50:00,
2013-08-03 18:55:00,77.7,59.4,27.91,ESE,107,1.2,4.0,53,-99.99,,,-99.99,WSDL version 420,2013-08-03 22:55:00,
2013-08-03 19:00:00,77.6,59.5,27.91,SW,218,0.0,3.6,54,-99.99,,,-99.99,WSDL version 420,2013-08-03 23:00:00,
2013-08-03 19:05:00,77.5,59.6,27.91,WSW,239,1.3,2.7,54,-99.99,,,-99.99,WSDL version 420,2013-08-03 23:05:00,
2013-08-03 19:10:00,77.5,59.5,27.91,NNW,338,1.9,2.9,54,-99.99,,,-99.99,WSDL version 420,2013-08-03 23:10:00,
2013-08-03 19:15:00,77.3,59.4,27.91,North,349,1.7,2.9,54,-99.99,,,-99.99,WSDL version 420,2013-08-03 23:15:00,
2013-08-03 19:20:00,77.1,59.2,27.91,ESE,113,0.5,2.9,54,-99.99,,,-99.99,WSDL version 420,2013-08-03 23:20:00,
2013-08-03 19:25:00,77.1,59.3,27.91,NE,51,1.8,2.9,55,-99.99,,,-99.99,WSDL version 420,2013-08-03 23:25:00,
2013-08-03 19:30:00,76.9,59.5,27.91,ENE,60,0.9,3.1,55,-99.99,,,-99.99,WSDL version 420,2013-08-03 23:30:00,
2013-08-03 19:35:00,76.7,59.4,27.91,WSW,239,0.4,3.4,55,-99.99,,,-99.99,WSDL version 420,2013-08-03 23:35:00,
2013-08-03 19:40:00,76.5,59.7,27.94,West,263,1.8,3.4,56,-99.99,,,-99.99,WSDL version 420,2013-08-03 23:40:00,
2013-08-03 19:45:00,76.3,59.5,27.94,East,83,1.6,2.7,56,-99.99,,,-99.99,WSDL version 420,2013-08-03 23:45:00,
2013-08-03 19:50:00,76.2,59.8,27.94,NE,53,1.0,2.5,57,-99.99,,,-99.99,WSDL version 420,2013-08-03 23:50:00,
2013-08-03 19:55:00,76.1,59.8,27.91,SW,218,0.0,2.5,57,-99.99,,,-99.99,WSDL version 420,2013-08-03 23:55:00,
2013-08-03 20:00:00,75.9,59.6,27.91,SSE,158,0.6,3.1,57,-99.99,,,-99.99,WSDL version 420,2013-08-04 00:00:00,
2013-08-03 20:05:00,75.8,59.5,27.91,East,95,0.4,3.1,57,-99.99,,,-99.99,WSDL version 420,2013-08-04 00:05:00,
2013-08-03 20:10:00,75.7,59.9,27.91,SW,218,0.4,2.2,58,-99.99,,,-99.99,WSDL version 420,2013-08-04 00:10:00,
2013-08-03 20:15:00,75.6,59.8,27.91,North,360,1.3,2.0,58,-99.99,,,-99.99,WSDL version 420,2013-08-04 00:15:00,
2013-08-03 20:20:00,75.5,59.9,27.91,East,98,0.6,3.1,59,-99.99,,,-99.99,WSDL version 420,2013-08-04 00:20:00,
2013-08-03 20:25:00,75.3,60.0,27.91,SW,218,0.0,3.1,59,-99.99,,,-99.99,WSDL version 420,2013-08-04 00:25:00,
2013-08-03 20:30:00,75.2,60.1,27.91,NNW,338,0.0,0.9,60,-99.99,,,-99.99,WSDL version 420,2013-08-04 00:30:00,
2013-08-03 20:35:00,75.1,60.3,27.91,West,270,0.5,1.6,60,-99.99,,,-99.99,WSDL version 420,2013-08-04 00:35:00,
2013-08-03 20:40:00,75.0,60.2,27.91,SSE,158,0.4,1.6,60,-99.99,,,-99.99,WSDL version 420,2013-08-04 00:40:00,
2013-08-03 20:45:00,74.9,60.1,27.91,East,83,0.0,1.3,60,-99.99,,,-99.99,WSDL version 420,2013-08-04 00:45:00,
2013-08-03 20:50:00,74.8,60.2,27.91,ENE,73,0.0,2.0,61,-99.99,,,-99.99,WSDL version 420,2013-08-04 00:50:00,
2013-08-03 20:55:00,74.7,60.2,27.94,NW,315,0.0,2.0,61,-99.99,,,-99.99,WSDL version 420,2013-08-04 00:55:00,
2013-08-03 21:00:00,74.7,60.6,27.94,NW,315,0.0,0.0,62,-99.99,,,-99.99,WSDL version 420,2013-08-04 01:00:00,
2013-08-03 21:05:00,74.6,60.7,27.94,NW,315,0.0,0.0,62,-99.99,,,-99.99,WSDL version 420,2013-08-04 01:05:00,
2013-08-03 21:10:00,74.5,60.6,27.94,NW,315,0.0,0.0,62,-99.99,,,-99.99,WSDL version 420,2013-08-04 01:10:00,
2013-08-03 21:15:00,74.4,60.9,27.94,SE,135,0.0,0.0,63,-99.99,,,-99.99,WSDL version 420,2013-08-04 01:15:00,
2013-08-03 21:20:00,74.3,60.9,27.94,SSW,203,0.6,2.0,63,-99.99,,,-99.99,WSDL version 420,2013-08-04 01:20:00,
2013-08-03 21:25:00,74.3,60.9,27.94,WSW,240,0.0,2.0,63,-99.99,,,-99.99,WSDL version 420,2013-08-04 01:25:00,
2013-08-03 21:30:00,74.2,60.6,27.94,South,191,0.7,1.3,63,-99.99,,,-99.99,WSDL version 420,2013-08-04 01:30:00,
2013-08-03 21:40:00,73.9,60.9,27.94,NW,308,0.6,0.9,64,-99.99,,,-99.99,WSDL version 420,2013-08-04 01:40:00,
2013-08-03 21:45:00,73.6,61.1,27.94,NE,53,0.4,1.1,65,-99.99,,,-99.99,WSDL version 420,2013-08-04 01:45:00,
2013-08-03 21:50:00,73.4,61.4,27.94,NNE,23,0.0,1.1,66,-99.99,,,-99.99,WSDL version 420,2013-08-04 01:50:00,
2013-08-03 21:55:00,73.3,61.5,27.94,NNW,338,0.0,0.0,67,-99.99,,,-99.99,WSDL version 420,2013-08-04 01:55:00,
2013-08-03 22:00:00,73.2,61.8,27.94,NNW,338,0.0,0.0,68,-99.99,,,-99.99,WSDL version 420,2013-08-04 02:00:00,
2013-08-03 22:05:00,73.2,62.0,27.94,NNW,338,0.0,0.0,68,-99.99,,,-99.99,WSDL version 420,2013-08-04 02:05:00,
2013-08-03 22:10:00,73.0,62.3,27.94,NNW,338,0.0,0.0,69,-99.99,,,-99.99,WSDL version 420,2013-08-04 02:10:00,
2013-08-03 22:15:00,73.0,62.3,27.94,South,191,0.4,1.6,69,-99.99,,,-99.99,WSDL version 420,2013-08-04 02:15:00,
2013-08-03 22:20:00,73.0,61.9,27.94,NW,323,0.9,1.6,68,-99.99,,,-99.99,WSDL version 420,2013-08-04 02:20:00,
2013-08-03 22:25:00,72.9,61.7,27.94,SE,141,0.6,1.3,68,-99.99,,,-99.99,WSDL version 420,2013-08-04 02:25:00,
2013-08-03 22:30:00,72.9,61.7,27.94,ESE,120,0.0,2.7,68,-99.99,,,-99.99,WSDL version 420,2013-08-04 02:30:00,
2013-08-03 22:35:00,72.9,62.1,27.94,North,360,0.0,2.7,69,-99.99,,,-99.99,WSDL version 420,2013-08-04 02:35:00,
2013-08-03 22:40:00,72.8,62.0,27.94,NNE,15,0.3,0.9,69,-99.99,,,-99.99,WSDL version 420,2013-08-04 02:40:00,
2013-08-03 22:45:00,72.7,61.9,27.94,NW,315,0.0,0.9,69,-99.99,,,-99.99,WSDL version 420,2013-08-04 02:45:00,
2013-08-03 22:50:00,72.7,61.9,27.94,NW,323,0.0,0.0,69,-99.99,,,-99.99,WSDL version 420,2013-08-04 02:50:00,
2013-08-03 22:55:00,72.7,61.9,27.94,North,11,0.0,0.0,69,-99.99,,,-99.99,WSDL version 420,2013-08-04 02:55:00,
2013-08-03 23:00:00,72.7,61.9,27.94,NW,321,0.5,1.1,69,-99.99,,,-99.99,WSDL version 420,2013-08-04 03:00:00,
2013-08-03 23:05:00,72.7,61.9,27.94,SE,128,0.7,3.4,69,-99.99,,,-99.99,WSDL version 420,2013-08-04 03:05:00,
2013-08-03 23:10:00,72.7,62.0,27.94,SE,129,0.0,3.4,69,-99.99,,,-99.99,WSDL version 420,2013-08-04 03:10:00,
2013-08-03 23:15:00,72.8,62.0,27.94,NE,53,0.0,3.1,69,-99.99,,,-99.99,WSDL version 420,2013-08-04 03:15:00,
2013-08-03 23:20:00,72.7,61.8,27.94,West,259,0.3,3.1,69,-99.99,,,-99.99,WSDL version 420,2013-08-04 03:20:00,
2013-08-03 23:25:00,72.7,61.9,27.94,WNW,293,0.0,1.3,69,-99.99,,,-99.99,WSDL version 420,2013-08-04 03:25:00,
2013-08-03 23:30:00,72.6,61.9,27.94,NE,45,0.0,0.0,69,-99.99,,,-99.99,WSDL version 420,2013-08-04 03:30:00,
2013-08-03 23:35:00,72.4,61.6,27.94,NNE,17,0.0,0.0,69,-99.99,,,-99.99,WSDL version 420,2013-08-04 03:35:00,
2013-08-03 23:40:00,72.3,61.6,27.94,South,173,1.0,1.3,69,-99.99,,,-99.99,WSDL version 420,2013-08-04 03:40:00,
2013-08-03 23:45:00,72.3,61.6,27.94,NE,45,0.0,1.3,69,-99.99,,,-99.99,WSDL version 420,2013-08-04 03:45:00,
2013-08-03 23:50:00,72.1,61.8,27.94,SW,218,0.0,2.2,70,-99.99,,,-99.99,WSDL version 420,2013-08-04 03:50:00,
2013-08-03 23:55:00,72.1,61.8,27.94,NNW,338,0.0,2.2,70,-99.99,,,-99.99,WSDL version 420,2013-08-04 03:55:00,